Regional Weather Roundup
Issued by NWS

Home | Current Version | Previous Version | Graphics & Text | Print | Product List | Glossary On
Versions: 1 2 3 4 5 6 7 8 9 10 11 12 13 14 15 16 17 18 19 20 21 22 23 24 25 26 27 28
000
ASUS45 KCYS 281710
RWRWY

WYOMING REGIONAL WEATHER ROUNDUP
NATIONAL WEATHER SERVICE CHEYENNE WY
1100 AM MDT TUE MAR 28 2017

NOTE:  "FAIR" INDICATES FEW OR NO CLOUDS BELOW 12,000 FEET
WITH NO SIGNIFICANT WEATHER AND/OR OBSTRUCTIONS TO VISIBILITY.

WYZ001-281800-
YELLOWSTONE NATIONAL PARK

CITY           SKY/WX    TMP DP  RH WIND       PRES   REMARKS
LK YELLOWSTONE   N/A     31  21  66 VRB3      30.14S
W YELLOWSTONE  NOT AVBL

$$
WYZ002>013-054>058-071-098>099-281800-
NORTHERN WYOMING

CITY           SKY/WX    TMP DP  RH WIND       PRES   REMARKS
JACKSON        MOSUNNY   37  27  65 N12       30.12S WCI  30
CODY           FAIR      39  34  82 N10       30.14R WCI  32
GREYBULL       CLOUDY    44  34  67 NW21      30.09R
WORLAND        LGT RAIN  39  37  92 N13       30.11R WCI  31
SHERIDAN       RAIN      37  34  89 NW15      30.15R WCI  28
BUFFALO        LGT RAIN  40  34  79 N23G36    30.09R WCI  30
GILLETTE       CLOUDY    43  37  79 NW22G28   30.04S
HULETT         FAIR      50  37  62 N7        30.03F
NEWCASTLE      LGT RAIN  43  36  75 SE3       30.03R

$$
WYZ014>020-022>026-101>103-281800-
CENTRAL WYOMING

CITY           SKY/WX    TMP DP  RH WIND       PRES   REMARKS
BIG PINEY      PTSUNNY   40  24  53 N22G28    30.05S WCI  30
PINEDALE       CLOUDY    36  27  69 NW17G26   30.06R WCI  25
DUBOIS         CLOUDY    36  28  75 CALM      30.06S
LANDER         LGT RAIN  38  35  89 NW16      30.08R WCI  29
RIVERTON       CLOUDY    40  32  73 N20G26    30.08R WCI  30
CASPER         CLOUDY    39  36  89 N24       30.03R WCI  28
DOUGLAS        CLOUDY    42  37  82 NE18      30.00R

$$
WYZ021-027>030-104>119-281800-
SOUTHERN WYOMING

CITY           SKY/WX    TMP DP  RH WIND       PRES   REMARKS
EVANSTON       PTSUNNY   34  26  72 N21       30.10R WCI  22
KEMMERER         N/A     34  30  86 W10       30.08S WCI  26
FORT BRIDGER   CLOUDY    37  35  92 W13       30.12R WCI  28
ROCK SPRINGS   HVY SNOW  33  31  92 N13       30.05R VSB 1/4 WCI  24
DIXON            N/A     44  35  71 N18       29.96R
RAWLINS        CLOUDY    41  32  70 N15       29.99R
SARATOGA       DRIZZLE   36  36 100 NW8       29.97R WCI  29
LARAMIE        LGT RAIN  36  34  92 N12       29.92S WCI  28
CHEYENNE       CLOUDY    40  38  93 N14G22    29.90S WCI  32
TORRINGTON     LGT RAIN  45  44  97 E9        29.93R
PINE BLUFFS    CLOUDY    43  41  93 E3        29.90S

$$




USA.gov is the U.S. government's official web portal to all federal, state and local government web resources and services.